DW2182 Weather Reports


Display with metric or nautical units.
time (UTC)temp
F
wind
direction
speed
MPH
gust
MPH
rain 1hr
in
rain 24hr
in
rain mn
in
humidity
%
barometer
mb
20260503205518 74 135 7.0 14.0 0.00 0.00 0.00 28 1006.5
20260503204518 74 135 5.0 10.0 0.00 0.00 0.00 27 1006.6
20260503203518 74 135 8.0 16.0 0.00 0.00 0.00 29 1007.0
20260503202518 74 135 9.0 17.0 0.00 0.00 0.00 27 1007.1
20260503201518 75 135 6.0 12.0 0.00 0.00 0.00 32 1007.2
20260503200538 74 135 6.0 13.0 0.00 0.00 0.00 29 1007.2
20260503195518 74 135 7.0 15.0 0.00 0.00 0.00 29 1007.4
20260503194518 74 135 7.0 12.0 0.00 0.00 0.00 28 1007.5
20260503193518 74 135 8.0 15.0 0.00 0.00 0.00 30 1007.7
20260503192518 73 135 8.0 13.0 0.00 0.00 0.00 30 1007.7
20260503191517 73 135 8.0 20.0 0.00 0.00 0.00 30 1007.8
20260503190516 72 135 9.0 15.0 0.00 0.00 0.00 31 1007.8
20260503185517 72 135 8.0 15.0 0.00 0.00 0.00 30 1007.9
20260503184537 72 135 8.0 12.0 0.00 0.00 0.00 30 1007.9
20260503183518 73 135 10.0 19.0 0.00 0.00 0.00 29 1008.1
20260503182518 73 158 8.0 19.0 0.00 0.00 0.00 29 1008.1
20260503181518 72 135 9.0 15.0 0.00 0.00 0.00 30 1008.2
20260503180518 72 158 10.0 19.0 0.00 0.00 0.00 30 1008.4
20260503175517 71 135 7.0 16.0 0.00 0.00 0.00 30 1008.5
20260503174517 71 158 10.0 19.0 0.00 0.00 0.00 31 1008.5
20260503173557 71 158 10.0 21.0 0.00 0.00 0.00 31 1008.4
20260503172517 71 158 9.0 16.0 0.00 0.00 0.00 31 1008.7
20260503171517 70 158 8.0 14.0 0.00 0.00 0.00 34 1008.5
20260503170638 70 158 9.0 18.0 0.00 0.00 0.00 34 1008.6
20260503150557 62 135 7.0 15.0 0.00 0.00 0.00 46 1008.1
20260503130517 54 135 6.0 11.0 0.00 0.00 0.00 59 1007.0
20260503110517 53 135 5.0 11.0 0.00 0.00 0.00 60 1005.4
20260503081517 57 90 8.0 12.0 0.00 0.00 0.00 44 1006.3
20260503080516 57 90 9.0 15.0 0.00 0.00 0.00 44 1006.3
20260503072516 58 90 7.0 14.0 0.00 0.00 0.00 43 1006.9
20260503071516 59 68 6.0 12.0 0.00 0.00 0.00 41 1007.0
20260503070516 59 90 7.0 17.0 0.00 0.00 0.00 40 1007.3
20260503054516 61 90 7.0 14.0 0.00 0.00 0.00 36 1009.5
20260503053516 61 90 8.0 11.0 0.00 0.00 0.00 35 1009.8
20260503052516 61 90 8.0 10.0 0.00 0.00 0.00 37 1009.6
20260503051516 61 90 7.0 10.0 0.00 0.00 0.00 39 1009.4
20260503050516 61 90 7.0 11.0 0.00 0.00 0.00 38 1009.6
20260503045537 62 90 8.0 13.0 0.00 0.00 0.00 37 1009.3
20260503044517 62 90 6.0 11.0 0.00 0.00 0.00 37 1009.2
20260503043537 61 90 10.0 15.0 0.00 0.00 0.00 36 1009.2
20260503042516 61 90 8.0 14.0 0.00 0.00 0.00 37 1009.1
20260503041516 60 90 5.0 11.0 0.00 0.00 0.00 41 1009.2
20260503040516 60 90 4.0 9.0 0.00 0.00 0.00 42 1009.6
20260503035516 60 68 3.0 9.0 0.00 0.00 0.00 42 1009.7
20260503034517 60 90 5.0 8.0 0.00 0.00 0.00 42 1010.0
20260503033517 60 90 3.0 7.0 0.00 0.00 0.00 41 1010.1
20260503032517 61 90 6.0 11.0 0.00 0.00 0.00 40 1010.2
20260503031557 61 90 6.0 11.0 0.00 0.00 0.00 40 1010.1
20260503030517 61 90 5.0 8.0 0.00 0.00 0.00 40 1010.0
20260503025517 61 90 6.0 10.0 0.00 0.00 0.00 39 1010.1
20260503024537 62 90 5.0 9.0 0.00 0.00 0.00 39 1010.4
20260503023517 62 90 5.0 10.0 0.00 0.00 0.00 39 1010.4
20260503022516 63 90 4.0 7.0 0.00 0.00 0.00 38 1010.4
20260503021517 63 90 3.0 7.0 0.00 0.00 0.00 38 1010.6
20260503020517 63 90 4.0 8.0 0.00 0.00 0.00 37 1010.7
20260503015516 64 90 4.0 7.0 0.00 0.00 0.00 36 1010.9
20260503014516 64 90 5.0 8.0 0.00 0.00 0.00 35 1010.8
20260503013516 65 90 5.0 8.0 0.00 0.00 0.00 35 1010.9
20260503012516 65 90 5.0 9.0 0.00 0.00 0.00 34 1011.0
20260503011516 65 90 4.0 7.0 0.00 0.00 0.00 33 1011.0
20260503010517 66 113 1.0 4.0 0.00 0.00 0.00 33 1011.0
20260503005516 66 90 3.0 6.0 0.00 0.00 0.00 33 1011.2
20260503004516 66 113 3.0 8.0 0.00 0.00 0.00 32 1011.2
20260503003516 66 113 3.0 7.0 0.00 0.00 0.00 30 1011.3
20260503002516 67 113 6.0 14.0 0.00 0.00 0.00 31 1011.4
20260503001516 67 135 2.0 4.0 0.00 0.00 0.00 32 1011.3
20260503000516 67 113 4.0 7.0 0.00 0.00 0.00 31 1011.2
20260502235516 68 113 5.0 8.0 0.00 0.00 0.00 31 1011.3
20260502234516 68 113 6.0 11.0 0.00 0.00 0.00 30 1011.3
20260502233516 68 113 6.0 10.0 0.00 0.00 0.00 29 1011.3
20260502232516 68 113 6.0 12.0 0.00 0.00 0.00 30 1011.3
20260502231616 69 113 7.0 11.0 0.00 0.00 0.00 29 1011.3
20260502230516 69 113 6.0 9.0 0.00 0.00 0.00 29 1011.5
20260502225516 69 113 5.0 9.0 0.00 0.00 0.00 30 1011.5
20260502224516 69 113 7.0 11.0 0.00 0.00 0.00 30 1011.8
20260502223516 69 113 8.0 17.0 0.00 0.00 0.00 29 1011.9
20260502222517 70 113 8.0 15.0 0.00 0.00 0.00 29 1012.0
20260502221517 71 113 5.0 10.0 0.00 0.00 0.00 29 1012.1
20260502220537 70 113 7.0 11.0 0.00 0.00 0.00 28 1012.2
20260502215537 71 113 5.0 10.0 0.00 0.00 0.00 28 1012.3
20260502214536 70 113 4.0 9.0 0.00 0.00 0.00 29 1012.4
20260502213516 71 135 7.0 10.0 0.00 0.00 0.00 29 1012.6
20260502212516 70 113 6.0 12.0 0.00 0.00 0.00 29 1012.7
20260502211517 70 113 6.0 11.0 0.00 0.00 0.00 28 1012.9
20260502210516 70 113 5.0 12.0 0.00 0.00 0.00 28 1013.2